Flag for U.S.A. Weather past 2 weeks in Harrisburg, Pennsylvania, U.S.A.

Now
26 °F

Snow. Ice fog.


Feels Like: 17 °F
Forecast: 18 / 33 °F
Wind: 9 mph from North

Location: Capital City Airport

Current Time: Mar 5, 2015 at 10:22:32 AM

Latest Report: Mar 5, 2015 at 9:56 AM


Visibility: 0 mi

Pressure: 30.15 "Hg

Humidity: 92%

Dew point: 24 °F

Location of HarrisburgLocation

Historic Weather in Harrisburg — Graph

°F

Harrisburg temperature yesterday

Maximum temperature yesterday: 43 °F (at 1:56 PM)
Minimum temperature yesterday: 32 °F (at 12:56 AM)
Average temperature yesterday: 37 °F

Past Weeks' High & Low Weather Summary

 TemperatureHumidityPressure
High43 °F (Mar 4, 1:56 PM)100% (Mar 4, 8:56 PM)30.87 "Hg (Mar 4, 8:56 PM)
Low0 °F (Feb 20, 3:56 AM)23% (Feb 28, 4:56 PM)29.70 "Hg (Feb 18, 2:56 PM)
Average23 °F61%30.22 "Hg
* Reported Feb 18 8:56 AM — Mar 5 8:56 AM, Harrisburg, Weather by CustomWeather, © 2015

Note: Actual official high and low records may vary slightly from our data, if they occured in-between our weather recording intervals... More about our weather records

Advertising

Harrisburg weather history for previous 24 hours

 ConditionsComfort  
Time TempWeatherWind HumidityBarometerVisibility
8:56 AM
Thu, Mar 5
28 °FHeavy snow. Ice fog.10 mph93%30.16 "Hg0 mi
7:56 AM30 °FSnow. Ice fog.8 mph92%30.13 "Hg1 mi
6:56 AM30 °FLight snow. Ice fog.8 mph92%30.08 "Hg1 mi
5:56 AM31 °FLight snow. Ice fog.7 mph89%30.08 "Hg2 mi
4:56 AM32 °FLight snow. Ice fog.8 mph88%30.04 "Hg1 mi
4:03 AM34 °FLight snow. Mostly cloudy.10 mph82%30.01 "Hg2 mi
3:56 AM34 °FLight snow. Overcast.10 mph82%30.01 "Hg2 mi
2:56 AM34 °FOvercast.8 mph88%30.02 "Hg9 mi
1:56 AM34 °FLight snow. Fog.7 mph92%30.01 "Hg4 mi
1:04 AM34 °FLight rain. Fog.6 mph92%29.97 "Hg4 mi
12:56 AM34 °FRain. Fog.5 mph92%29.97 "Hg3 mi
11:56 PM
Wed, Mar 4
35 °FLight rain. Fog.6 mph92%29.97 "Hg5 mi
10:56 PM36 °FRain. Fog.7 mph89%29.98 "Hg5 mi
9:56 PM38 °FRain. Fog.8 mph93%29.98 "Hg5 mi
8:56 PM37 °FLight rain. Fog.No wind100%29.94 "Hg1 mi
7:56 PM38 °FLight rain. Fog.No wind97%29.95 "Hg2 mi
6:56 PM38 °FFog.3 mph97%29.91 "Hg2 mi
5:56 PM41 °FLight rain. Overcast.No wind89%29.90 "Hg7 mi
4:56 PM42 °FLight rain. Overcast.No wind89%29.90 "Hg7 mi
3:56 PM42 °FFog.No wind92%29.90 "Hg6 mi
2:56 PM43 °FLight rain. Fog.3 mph89%29.89 "Hg5 mi
1:56 PM43 °FFog.No wind89%29.87 "Hg2 mi
1:04 PM42 °FRain. Fog.No wind92%29.87 "Hg2 mi
12:56 PM42 °FLight rain. Fog.No wind92%29.88 "Hg3 mi
11:56 AM40 °FLight rain. Fog.No wind93%29.90 "Hg3 mi
10:56 AM38 °FFog.3 mph93%29.89 "Hg2 mi
Weather by CustomWeather, © 2015

See weather overviewHow to use our weather pages